{"data":{"norad_id":85106,"intl_designator":"","name":"UNKNOWN","alt_names":[],"object_type":"UNKNOWN","status":"UNKNOWN","operator":null,"country":null,"launch_date":null,"launch_site_code":null,"launch_vehicle":null,"mission":null,"orbit_class":"UNKNOWN","rcs_meters":null,"size_class":null,"mass_kg":null,"dimensions":null,"purposes":[],"wikipedia_slug":null,"has_3d_model":false,"image_url":null,"decayed_at":null,"tle_current":{"epoch":"2026-05-23T01:26:11.236128Z","epoch_age_seconds":253427,"freshness":"STALE","line1":"1 85106U          26143.05985227  .00000433  00000+0  52098-3 0  9990","line2":"2 85106 100.0609 256.8865 0008757 324.3159 214.6219 13.73122498625202","mean_motion":13.73122498,"eccentricity":0.0008757,"inclination_deg":100.0609,"raan_deg":256.8865,"arg_perigee_deg":324.3159,"mean_anomaly_deg":214.6219,"bstar":0.00052098,"rev_number":62520,"period_min":104.87046873803,"perigee_km":981.93124158028,"apogee_km":994.83296313615,"semimajor_km":7366.5191023582,"source":"CELESTRAK","updated_at":"2026-05-25T13:38:11.430742Z"}}}